UAL372 KDEN-KSYR

Flight info

Callsign UAL372
Flight time N/A
Altitude 37000
Route EEONS8 WYNDM OBH DBQ FNT Q822 GONZZ
Aircraft A320/M-VGDW/C

Departure

Time N/A
Airport Denver International Airport (KDEN)

Arrival

Time 2026-05-03 23:43
Airport Syracuse Hancock International Airport (KSYR)
Time Latitude Longitude Altitude Speed Heading
2026-05-03 23:09 43.09486 -79.63574 36894 ft 494 kts 88°
2026-05-03 23:10 43.09543 -79.58770 36893 ft 494 kts 88°
2026-05-03 23:10 43.09656 -79.49478 36889 ft 494 kts 88°
2026-05-03 23:11 43.09761 -79.40057 36895 ft 495 kts 88°
2026-05-03 23:11 43.09864 -79.30656 36894 ft 495 kts 88°
2026-05-03 23:12 43.09958 -79.21220 36894 ft 495 kts 88°
2026-05-03 23:12 43.10042 -79.11790 36897 ft 495 kts 88°
2026-05-03 23:13 43.10115 -79.02359 36905 ft 495 kts 89°
2026-05-03 23:13 43.10157 -78.92982 36904 ft 496 kts 89°
2026-05-03 23:14 43.10177 -78.83551 36913 ft 496 kts 89°
2026-05-03 23:14 43.10208 -78.74110 36900 ft 495 kts 89°
2026-05-03 23:15 43.10232 -78.64670 36910 ft 495 kts 89°
2026-05-03 23:15 43.10237 -78.55238 36913 ft 495 kts 89°
2026-05-03 23:16 43.10237 -78.45822 36558 ft 494 kts 89°
2026-05-03 23:16 43.10236 -78.41133 36309 ft 493 kts 89°
2026-05-03 23:16 43.10232 -78.36487 36062 ft 495 kts 89°
2026-05-03 23:16 43.10227 -78.31766 35813 ft 497 kts 89°
2026-05-03 23:17 43.10218 -78.27026 35564 ft 499 kts 89°
2026-05-03 23:17 43.10207 -78.22275 35262 ft 500 kts 89°
2026-05-03 23:17 43.10196 -78.17501 34312 ft 505 kts 89°
2026-05-03 23:17 43.10184 -78.12677 33397 ft 507 kts 89°
2026-05-03 23:18 43.10169 -78.07867 32599 ft 505 kts 89°
2026-05-03 23:18 43.10147 -78.03035 31565 ft 508 kts 89°
2026-05-03 23:18 43.10122 -77.98220 30689 ft 506 kts 89°
2026-05-03 23:18 43.10096 -77.93405 29823 ft 504 kts 88°
2026-05-03 23:19 43.10073 -77.88633 28990 ft 501 kts 88°
2026-05-03 23:19 43.10049 -77.83872 28056 ft 500 kts 88°
2026-05-03 23:19 43.10022 -77.79105 27135 ft 500 kts 88°
2026-05-03 23:19 43.09992 -77.74373 26350 ft 496 kts 88°
2026-05-03 23:20 43.09962 -77.69676 25607 ft 491 kts 88°
2026-05-03 23:20 43.09931 -77.65012 24810 ft 488 kts 88°
2026-05-03 23:20 43.09898 -77.60402 24058 ft 484 kts 88°
2026-05-03 23:20 43.09860 -77.55837 23422 ft 477 kts 88°
2026-05-03 23:21 43.09819 -77.51317 22744 ft 472 kts 88°
2026-05-03 23:21 43.09777 -77.46837 22043 ft 468 kts 88°
2026-05-03 23:21 43.09736 -77.42418 21385 ft 463 kts 87°
2026-05-03 23:21 43.09696 -77.38037 20774 ft 458 kts 87°
2026-05-03 23:22 43.09610 -77.29498 19620 ft 447 kts 87°
2026-05-03 23:22 43.09565 -77.25267 19054 ft 442 kts 87°
2026-05-03 23:22 43.09519 -77.21077 18488 ft 439 kts 87°
2026-05-03 23:23 43.09473 -77.16914 17902 ft 436 kts 87°
2026-05-03 23:23 43.09427 -77.12785 17316 ft 434 kts 87°
2026-05-03 23:23 43.09381 -77.08686 16715 ft 431 kts 87°
2026-05-03 23:23 43.09332 -77.04587 16155 ft 431 kts 87°
2026-05-03 23:24 43.09281 -77.00508 15698 ft 426 kts 88°
2026-05-03 23:24 43.09233 -76.96443 15043 ft 425 kts 87°
2026-05-03 23:24 43.09179 -76.92402 14373 ft 425 kts 87°
2026-05-03 23:24 43.09122 -76.88407 13957 ft 415 kts 87°
2026-05-03 23:25 43.09062 -76.84487 13143 ft 409 kts 88°
2026-05-03 23:25 43.08997 -76.80590 12418 ft 409 kts 88°
2026-05-03 23:25 43.08931 -76.76725 11788 ft 406 kts 88°
2026-05-03 23:25 43.08661 -76.72909 11526 ft 398 kts 96°
2026-05-03 23:26 43.08423 -76.69244 11415 ft 377 kts 88°
2026-05-03 23:26 43.08495 -76.65792 11282 ft 361 kts 82°
2026-05-03 23:26 43.08727 -76.62404 11146 ft 345 kts 80°
2026-05-03 23:26 43.08986 -76.59215 10997 ft 337 kts 80°
2026-05-03 23:27 43.09222 -76.56089 11004 ft 321 kts 81°
2026-05-03 23:27 43.09408 -76.53111 10999 ft 308 kts 82°
2026-05-03 23:27 43.09553 -76.50235 10998 ft 300 kts 85°
2026-05-03 23:27 43.09233 -76.47461 10990 ft 295 kts 111°
2026-05-03 23:28 43.08378 -76.44983 11012 ft 281 kts 117°
2026-05-03 23:28 43.07466 -76.42621 11013 ft 280 kts 118°
2026-05-03 23:28 43.06534 -76.40264 11008 ft 282 kts 119°
2026-05-03 23:28 43.05598 -76.37911 11009 ft 282 kts 118°
2026-05-03 23:29 43.04662 -76.35553 11009 ft 282 kts 117°
2026-05-03 23:29 43.03730 -76.33204 11008 ft 279 kts 118°
2026-05-03 23:29 43.02801 -76.30876 11005 ft 279 kts 118°
2026-05-03 23:29 43.01872 -76.28526 11010 ft 282 kts 118°
2026-05-03 23:30 43.00983 -76.26208 11007 ft 280 kts 110°
2026-05-03 23:30 43.00449 -76.23658 11016 ft 281 kts 99°
2026-05-03 23:30 43.00058 -76.21049 11002 ft 279 kts 98°
2026-05-03 23:30 42.99690 -76.18443 11004 ft 278 kts 94°
2026-05-03 23:31 42.99526 -76.15823 11007 ft 278 kts 89°
2026-05-03 23:31 42.99436 -76.13192 10856 ft 276 kts 88°
2026-05-03 23:31 42.99368 -76.10582 10526 ft 273 kts 89°
2026-05-03 23:31 42.99313 -76.07992 10187 ft 270 kts 88°
2026-05-03 23:32 42.99266 -76.05430 9864 ft 271 kts 89°
2026-05-03 23:32 42.99230 -76.02858 9589 ft 268 kts 89°
2026-05-03 23:32 42.99202 -76.00330 9210 ft 266 kts 88°
2026-05-03 23:32 42.99191 -75.97816 8779 ft 264 kts 88°
2026-05-03 23:33 42.99182 -75.95339 8390 ft 261 kts 88°
2026-05-03 23:33 42.99171 -75.92887 7996 ft 255 kts 88°
2026-05-03 23:33 42.99157 -75.90467 7520 ft 254 kts 88°
2026-05-03 23:33 42.99144 -75.88061 7070 ft 253 kts 88°
2026-05-03 23:34 42.99134 -75.85674 6613 ft 250 kts 88°
2026-05-03 23:34 42.99123 -75.83301 6138 ft 250 kts 88°
2026-05-03 23:34 42.99110 -75.80930 5706 ft 248 kts 88°
2026-05-03 23:34 42.99100 -75.78610 5335 ft 247 kts 88°
2026-05-03 23:35 42.99094 -75.76250 5098 ft 244 kts 87°
2026-05-03 23:35 42.99359 -75.74044 4831 ft 235 kts 60°
2026-05-03 23:35 43.00370 -75.72400 4512 ft 224 kts 26°
2026-05-03 23:35 43.01802 -75.71769 4191 ft 216 kts
2026-05-03 23:36 43.03302 -75.71619 3872 ft 216 kts 358°
2026-05-03 23:36 43.04802 -75.71546 3580 ft 215 kts 358°
2026-05-03 23:36 43.06300 -75.71492 3282 ft 215 kts 358°
2026-05-03 23:36 43.07790 -75.71533 2981 ft 212 kts 345°
2026-05-03 23:37 43.09039 -75.72466 2762 ft 205 kts 309°
2026-05-03 23:37 43.09851 -75.74081 2713 ft 208 kts 299°
2026-05-03 23:37 43.10565 -75.75817 2716 ft 209 kts 298°
2026-05-03 23:37 43.11265 -75.77571 2714 ft 210 kts 298°
2026-05-03 23:38 43.11800 -75.79413 2714 ft 210 kts 278°
2026-05-03 23:38 43.11807 -75.81407 2727 ft 210 kts 268°
2026-05-03 23:38 43.11743 -75.83404 2715 ft 211 kts 268°
2026-05-03 23:38 43.11680 -75.85408 2714 ft 210 kts 268°
2026-05-03 23:39 43.11619 -75.87407 2710 ft 211 kts 268°
2026-05-03 23:39 43.11559 -75.89392 2710 ft 203 kts 268°
2026-05-03 23:39 43.11501 -75.91238 2727 ft 189 kts 269°
2026-05-03 23:39 43.11448 -75.92950 2671 ft 173 kts 269°
2026-05-03 23:40 43.11398 -75.94544 2482 ft 159 kts 269°
2026-05-03 23:40 43.11354 -75.95958 2306 ft 142 kts 269°
2026-05-03 23:40 43.11312 -75.97289 2128 ft 138 kts 269°
2026-05-03 23:40 43.11271 -75.98590 1951 ft 136 kts 269°
2026-05-03 23:41 43.11230 -75.99876 1775 ft 135 kts 269°
2026-05-03 23:41 43.11190 -76.01153 1599 ft 134 kts 269°
2026-05-03 23:41 43.11150 -76.02422 1421 ft 133 kts 269°
2026-05-03 23:41 43.11109 -76.03687 1245 ft 133 kts 269°
2026-05-03 23:42 43.11069 -76.04955 1067 ft 133 kts 269°
2026-05-03 23:42 43.11028 -76.06218 891 ft 133 kts 269°
2026-05-03 23:42 43.10986 -76.07488 740 ft 138 kts 268°
2026-05-03 23:42 43.10940 -76.08778 546 ft 134 kts 269°
2026-05-03 23:43 43.10905 -76.10020 416 ft 120 kts 269°
2026-05-03 23:43 43.10880 -76.10783 425 ft 44 kts 267°
2026-05-03 23:43 43.10870 -76.11133 427 ft 34 kts 268°
2026-05-03 23:43 43.10875 -76.11302 427 ft 8 kts 314°
2026-05-03 23:44 43.10940 -76.11352 425 ft 13 kts 335°
2026-05-03 23:44 43.10983 -76.11340 418 ft 7 kts 58°
2026-05-03 23:44 43.11021 -76.11300 424 ft 8 kts
2026-05-03 23:44 43.11086 -76.11291 416 ft 10 kts 30°
2026-05-03 23:45 43.11145 -76.11228 424 ft 10 kts 38°
2026-05-03 23:45 43.11158 -76.11214 424 ft 0 kts 38°
2026-05-03 23:46 43.11159 -76.11213 424 ft 1 kts 38°
2026-05-03 23:46 43.11178 -76.11192 424 ft 5 kts 38°
2026-05-03 23:46 43.11202 -76.11166 412 ft 3 kts 38°
2026-05-03 23:46 43.11208 -76.11160 424 ft 0 kts 37°